[[{"header":{"parameterUnit":"m.s-1","parameterCategory":1,"la1":30.2991,"la2":30.254,"lo1":-89.0895,"lo2":-89.0444,"dy":0.0017,"dx":0.0017,"nx":28,"ny":28,"refTime":"2024-08-08T21:00:00:Z","depth":0,"parameterNumber":2,"parameterNumberName":"U-component_of_WINDS"},"data":[0,0,0,0,0,0,0,0,0,0,0,0,0,0,0,0,0,0,0,0,0,0,0,0,0,0,0,0,0,0,0,0,0,0,0,0,0,0,0,0,0,0,0,0,0,0,0,0,0,0,0,0,0,0,0,0,0,0,-0.9317,-0.9316,0,-0.9236,-0.9235,-0.9234,-0.9116,-0.9114,-0.9112,-0.911,-0.9028,-0.9028,-0.9028,0,0,0,0,0,0,0,0,0,0,0,0,0,-0.9372,-0.9371,-0.9317,-0.9316,-0.9315,-0.9236,-0.9235,-0.9234,-0.9117,-0.9114,-0.9112,-0.9109,-0.9028,-0.9028,-0.9028,0,0,0,0,0,0,0,0,0,0,0,0,0,-0.9325,-0.9371,-0.9317,-0.9247,-0.924,-0.9236,-0.9235,-0.9234,-0.9117,-0.9114,-0.9111,-0.9108,-0.9029,-0.9028,-0.9028,-0.9087,0,0,-0.9026,-0.9026,0,0,0,0,0,0,0,0,-0.9328,-0.9323,-0.9259,-0.9252,-0.9244,-0.9183,-0.9224,-0.9184,-0.9118,-0.9164,-0.911,-0.9107,-0.9082,-0.9077,-0.9069,-0.9083,-0.9079,-0.9026,-0.9026,-0.9026,-0.9026,0,0,0,0,0,0,0,-0.9331,-0.9326,-0.9285,-0.9258,-0.9249,-0.922,-0.921,-0.9216,-0.9141,-0.916,-0.9151,-0.9143,-0.9078,-0.907,-0.9066,-0.9078,-0.9026,-0.9026,-0.9026,-0.9026,-0.9135,-0.9138,0,0,0,0,0,0,-0.9345,-0.933,-0.9288,-0.9283,-0.9279,-0.9222,-0.921,-0.9206,-0.9141,-0.9128,-0.9146,-0.9138,-0.9072,-0.9067,-0.9063,-0.9127,-0.9026,-0.9026,-0.9025,-0.9132,-0.9136,-0.914,0,0,0,0,0,0,-0.9346,-0.9342,-0.9291,-0.9304,-0.9295,-0.9224,-0.922,-0.9206,-0.9197,-0.913,-0.9117,-0.9151,-0.9069,-0.9063,-0.9081,-0.9122,-0.9025,-0.9025,-0.9129,-0.9133,-0.9138,-0.9256,0,0,0,0,0,0,-0.9349,-0.9343,-0.9365,-0.9305,-0.9295,-0.9311,-0.9222,-0.9206,-0.9197,-0.9186,-0.9132,-0.912,-0.9066,-0.9083,-0.9081,-0.912,-0.9025,-0.9125,-0.9131,-0.9136,-0.9249,-0.9265,-0.9278,0,0,0,0,0,-0.9351,-0.9402,-0.9367,-0.9362,-0.932,-0.9314,-0.9308,-0.9245,-0.9201,-0.9222,-0.9179,-0.9121,-0.9118,-0.9085,-0.9083,-0.9122,-0.9122,-0.9129,-0.9136,-0.9242,-0.9262,-0.9278,0,0,0,0,0,0,-0.9469,-0.9393,-0.9353,-0.9386,-0.9357,-0.9294,-0.9318,-0.9268,-0.9251,-0.9242,-0.9165,-0.9154,-0.9181,-0.9153,-0.9118,-0.9176,-0.9111,-0.9118,-0.9193,-0.9211,-0.9226,-0.9232,-0.9024,0,0,0,0,0,-0.9499,-0.95,-0.9433,-0.9469,-0.9456,-0.939,-0.9385,-0.9339,-0.9306,-0.9294,-0.9252,-0.9223,-0.9215,-0.9211,-0.92,-0.9244,-0.923,-0.927,-0.9285,-0.9297,-0.9304,-0.9325,-0.9342,-0.9163,-0.9163,-0.9163,0,0,-0.9561,-0.9519,-0.9524,-0.9491,-0.9464,-0.9466,-0.9381,-0.9387,-0.9389,-0.9295,-0.9309,-0.9278,-0.9239,-0.9271,-0.9282,-0.9248,-0.9351,-0.9307,-0.9317,-0.9317,-0.9334,-0.9351,-0.9366,-0.9168,-0.9167,-0.9166,0,0,-0.9674,-0.9643,-0.9669,-0.9643,-0.9602,-0.9557,-0.9564,-0.9508,-0.9484,-0.9497,-0.9426,-0.9427,-0.9415,-0.9391,-0.9377,-0.9482,-0.9429,-0.9481,-0.9559,-0.958,-0.9594,-0.9606,-0.9644,-0.9658,-0.9488,-0.9488,-0.9488,0,-0.9756,-0.9757,-0.9689,-0.97,-0.9688,-0.9602,-0.9628,-0.9606,-0.9564,-0.9558,-0.952,-0.9504,-0.9472,-0.9496,-0.9522,-0.9514,-0.9519,-0.9487,-0.9598,-0.9609,-0.9619,-0.9654,-0.9668,-0.9495,-0.9494,-0.9493,-0.9493,0,-0.986,-0.9862,-0.9888,-0.9849,-0.984,-0.9858,-0.9793,-0.9792,-0.9747,-0.9707,-0.9721,-0.968,-0.966,-0.9662,-0.9619,-0.968,-0.966,-0.9612,-0.9545,-0.9644,-0.9676,-0.9688,-0.9504,-0.9502,-0.95,-0.9498,0,0,-1.0046,-0.9969,-0.9979,-0.9961,-0.9909,-0.9909,-0.9924,-0.9904,-0.9904,-0.9878,-0.9889,-0.9881,-0.9835,-0.982,-0.9773,-0.9791,-0.9877,-0.974,-0.9738,-0.9767,-0.9942,-0.9979,-0.9996,-0.9841,-0.9843,-0.9845,-0.9945,0,-1.0149,-1.017,-1.0109,-1.0145,-1.0146,-1.0065,-1.0078,-1.0048,-1.0011,-1.0006,-0.9965,-0.9961,-0.9901,-0.9891,-0.9906,-0.9864,-0.9911,-0.9855,-0.985,-0.9851,-0.9862,-1.0012,-1.0051,-1.0147,-0.9957,-0.9959,-0.9961,0,-1.0273,-1.0253,-1.0289,-1.0235,-1.0233,-1.0246,-1.0222,-1.0219,-1.0183,-1.0155,-1.0138,-1.0083,-1.0094,-1.0031,-1.0045,-1.0009,-1.0003,-0.9982,-0.9984,-0.9981,-0.9912,-1.0013,-1.0177,-1.0191,-0.9979,-0.9978,-0.9976,0,-1.0405,-1.0387,-1.0406,-1.0392,-1.033,-1.0341,-1.0316,-1.0277,-1.0269,-1.0248,-1.0242,-1.0223,-1.0213,-1.02,-1.0141,-1.0101,-1.0163,-1.0094,-1.0139,-1.0141,-1.0156,-1.0156,-1.0321,-1.0153,-1.0153,-1.0153,-1.0152,0,-1.0527,-1.0552,-1.0464,-1.0476,-1.0502,-1.0432,-1.046,-1.0426,-1.0393,-1.0397,-1.0326,-1.0331,-1.0254,-1.0251,-1.0206,-1.0224,-1.022,-1.0198,-1.0185,-1.0204,-1.0207,-1.0199,-1.0191,-1.0156,-1.0155,-1.0155,-1.0154,0,-1.0678,-1.062,-1.0636,-1.0576,-1.0561,-1.0583,-1.0531,-1.054,-1.0499,-1.0505,-1.0502,-1.0437,-1.043,-1.0371,-1.035,-1.032,-1.0355,-1.033,-1.0368,-1.0359,-1.0408,-1.0404,-1.0573,-1.0592,-1.0413,-1.0415,-1.0416,0,-1.076,-1.0777,-1.0719,-1.0716,-1.0694,-1.0691,-1.0682,-1.0614,-1.0607,-1.0568,-1.0582,-1.0569,-1.0554,-1.0547,-1.0498,-1.0482,-1.0456,-1.0516,-1.0453,-1.0471,-1.0457,-1.0456,-1.0458,-1.053,-1.0532,-1.0534,-1.0536,0,-1.0911,-1.0881,-1.087,-1.085,-1.0841,-1.0822,-1.0798,-1.0801,-1.0725,-1.0722,-1.0713,-1.0702,-1.0681,-1.0669,-1.0645,-1.0619,-1.0565,-1.0556,-1.0565,-1.0585,-1.0606,-1.0595,-1.0404,-1.0552,-1.0551,-1.0549,-1.0549,-1.0548,-1.1029,-1.1041,-1.1002,-1.0992,-1.0967,-1.0947,-1.0952,-1.0911,-1.0903,-1.088,-1.084,-1.0838,-1.0802,-1.0763,-1.0742,-1.0739,-1.0707,-1.0721,-1.0724,-1.0729,-1.0739,-1.0606,-1.0734,-1.0734,-1.0733,-1.0733,-1.0732,0,-1.1176,-1.1147,-1.1139,-1.1108,-1.1101,-1.105,-1.1022,-1.1019,-1.1018,-1.0988,-1.0976,-1.0966,-1.0954,-1.0905,-1.0887,-1.0895,-1.087,-1.0893,-1.0891,-1.0886,-1.0768,-1.0762,-1.0913,-1.0913,-1.0913,-1.0913,-1.0913,-1.0913,-1.1252,-1.1269,-1.1235,-1.1239,-1.1209,-1.1206,-1.1194,-1.1175,-1.1151,-1.1143,-1.1133,-1.1101,-1.1063,-1.1043,-1.103,-1.1015,-1.1012,-1.1044,-1.1021,-1.0912,-1.0895,-1.0878,-1.0871,-1.1043,-1.1044,-1.1139,-1.114,-1.1141]},{"header":{"parameterUnit":"m.s-1","parameterCategory":1,"la1":30.2991,"la2":30.254,"lo1":-89.0895,"lo2":-89.0444,"dy":0.0017,"dx":0.0017,"nx":28,"ny":28,"refTime":"2024-08-08T21:00:00:Z","depth":0,"parameterNumber":3,"parameterNumberName":"V-component_of_WINDS"},"data":[0,0,0,0,0,0,0,0,0,0,0,0,0,0,0,0,0,0,0,0,0,0,0,0,0,0,0,0,0,0,0,0,0,0,0,0,0,0,0,0,0,0,0,0,0,0,0,0,0,0,0,0,0,0,0,0,0,0,1.011,1.011,0,1.0181,1.0182,1.0182,1.022,1.022,1.022,1.022,1.0293,1.0295,1.0297,0,0,0,0,0,0,0,0,0,0,0,0,0,1.0006,1.0007,1.011,1.0111,1.0111,1.0181,1.0182,1.0183,1.022,1.022,1.022,1.022,1.0292,1.0294,1.0297,0,0,0,0,0,0,0,0,0,0,0,0,0,1.0061,1.0008,1.0109,1.0138,1.0142,1.018,1.0182,1.0183,1.022,1.022,1.022,1.022,1.0292,1.0294,1.0297,1.0312,0,0,1.0306,1.0307,0,0,0,0,0,0,0,0,1.0058,1.0065,1.0133,1.0137,1.014,1.0192,1.0172,1.0226,1.022,1.019,1.022,1.022,1.0259,1.0265,1.0278,1.0316,1.0319,1.0306,1.0308,1.0309,1.0309,0,0,0,0,0,0,0,1.0054,1.0062,1.0138,1.0134,1.0139,1.0148,1.0156,1.0182,1.0223,1.0193,1.0196,1.0204,1.0261,1.0275,1.028,1.032,1.0306,1.0308,1.031,1.0311,1.0373,1.0373,0,0,0,0,0,0,1.0046,1.0059,1.0136,1.014,1.0099,1.0149,1.0158,1.0175,1.0223,1.023,1.0204,1.0205,1.027,1.0276,1.0282,1.0303,1.0309,1.0311,1.0313,1.0373,1.0373,1.0373,0,0,0,0,0,0,1.0043,1.0052,1.0133,1.01,1.0111,1.0151,1.017,1.0176,1.019,1.0231,1.0239,1.021,1.027,1.0278,1.0304,1.0306,1.0313,1.0315,1.0373,1.0373,1.0373,1.0344,0,0,0,0,0,0,1.004,1.0051,1.0057,1.01,1.0113,1.0154,1.017,1.0178,1.0195,1.0198,1.0239,1.0246,1.0271,1.03,1.0307,1.031,1.0317,1.0373,1.0373,1.0373,1.0345,1.0343,1.0341,0,0,0,0,0,1.0036,1.0047,1.0058,1.0067,1.0122,1.0154,1.0161,1.0189,1.0195,1.0202,1.0228,1.0245,1.0304,1.0302,1.0311,1.0314,1.0373,1.0373,1.0373,1.0346,1.0343,1.0341,0,0,0,0,0,0,1.0004,1.0053,1.0066,1.009,1.0117,1.016,1.0169,1.0186,1.0212,1.0214,1.0248,1.0257,1.0279,1.0299,1.0296,1.0331,1.034,1.0342,1.0317,1.0315,1.0313,1.0308,1.032,0,0,0,0,0,0.9999,1.0022,1.0063,1.0081,1.0094,1.0129,1.0144,1.0163,1.0193,1.0205,1.0233,1.0261,1.0286,1.0301,1.0327,1.0348,1.0357,1.0354,1.0352,1.035,1.0351,1.0363,1.0362,1.0372,1.0372,1.0372,0,0,0.9991,1.002,1.0032,1.0075,1.0099,1.012,1.0139,1.0161,1.0177,1.0208,1.0234,1.0255,1.0289,1.0312,1.0324,1.033,1.0351,1.035,1.0349,1.0351,1.0363,1.0362,1.0361,1.0372,1.0372,1.0372,0,0,0.9986,1.0011,1.0028,1.0051,1.0086,1.0109,1.0113,1.0153,1.0168,1.0195,1.0218,1.0238,1.028,1.0303,1.032,1.0322,1.0339,1.0329,1.0319,1.0331,1.033,1.0329,1.033,1.0329,1.033,1.033,1.033,0,0.9972,1.0005,1.0035,1.0056,1.0073,1.0102,1.0119,1.014,1.0181,1.0192,1.0198,1.0251,1.0276,1.0305,1.0305,1.0318,1.0323,1.0325,1.0327,1.0327,1.0327,1.0328,1.0328,1.0329,1.0329,1.0329,1.0329,0,0.9985,1.0008,1.0017,1.0056,1.0075,1.0094,1.0126,1.0141,1.0158,1.018,1.0207,1.0237,1.0268,1.0277,1.0294,1.0307,1.031,1.0321,1.0331,1.0324,1.0326,1.0326,1.0327,1.0327,1.0327,1.0328,0,0,0.9963,1.0017,1.002,1.0037,1.0077,1.0095,1.0115,1.0146,1.0158,1.0185,1.0202,1.0237,1.0247,1.0266,1.0286,1.0296,1.0295,1.0306,1.0308,1.0303,1.0311,1.0302,1.0302,1.0306,1.0307,1.0307,1.0308,0,0.9964,1.0001,1.0027,1.0054,1.0075,1.0101,1.0118,1.0144,1.0165,1.0186,1.0209,1.0233,1.0245,1.0257,1.0268,1.0293,1.0297,1.0293,1.0322,1.0323,1.0313,1.0303,1.0294,1.0294,1.0309,1.0309,1.0309,0,0.9971,0.9996,1.0025,1.0061,1.0071,1.0086,1.0115,1.0135,1.0165,1.0179,1.02,1.022,1.0242,1.0249,1.0279,1.0276,1.0289,1.0303,1.0304,1.0308,1.0316,1.0306,1.0295,1.0294,1.031,1.031,1.031,0,0.9952,0.9993,1.0015,1.0029,1.0073,1.0082,1.0101,1.0131,1.0147,1.0172,1.0183,1.0211,1.0226,1.0247,1.0274,1.0277,1.0301,1.0311,1.0313,1.0312,1.0317,1.0316,1.0307,1.0326,1.0326,1.0326,1.0326,0,0.995,0.9966,1.0007,1.0021,1.0039,1.0069,1.0086,1.0107,1.0133,1.0151,1.0176,1.0192,1.0226,1.0247,1.0268,1.0289,1.0296,1.0308,1.0313,1.0306,1.0304,1.0315,1.0315,1.0326,1.0326,1.0326,1.0326,0,0.9932,0.996,0.9986,1.0024,1.0034,1.0046,1.0079,1.0093,1.0114,1.0136,1.0143,1.0178,1.0202,1.0231,1.0266,1.028,1.0299,1.0308,1.0289,1.0292,1.0293,1.0292,1.029,1.0291,1.0309,1.0308,1.0308,0,0.993,0.9942,0.9982,0.9995,1.0013,1.0034,1.005,1.008,1.0096,1.013,1.0139,1.0166,1.0189,1.0227,1.0255,1.0282,1.029,1.0288,1.0295,1.0286,1.029,1.0289,1.029,1.0286,1.0286,1.0285,1.0285,0,0.9922,0.9934,0.9957,0.9984,1.0002,1.0025,1.0049,1.0058,1.0092,1.0109,1.0135,1.0152,1.0187,1.0213,1.0242,1.0261,1.0279,1.0283,1.0285,1.0277,1.0265,1.0271,1.0284,1.0283,1.0283,1.0283,1.0283,1.0283,0.9911,0.9923,0.9952,0.9976,0.9997,1.0018,1.0033,1.0056,1.0077,1.0108,1.0124,1.0149,1.0177,1.0218,1.0237,1.0256,1.0262,1.0265,1.0266,1.0266,1.0263,1.0262,1.0262,1.0262,1.0262,1.0262,1.0262,0,0.9904,0.9924,0.9945,0.9977,0.9996,1.001,1.0036,1.0051,1.0072,1.0097,1.0119,1.0148,1.0172,1.0202,1.0229,1.0239,1.0247,1.0245,1.0244,1.0248,1.0257,1.0252,1.0237,1.0237,1.0237,1.0237,1.0237,1.0237,0.9903,0.9924,0.994,0.9971,0.9991,1.0015,1.0029,1.0048,1.0068,1.0099,1.0119,1.0138,1.0164,1.0193,1.0216,1.0224,1.0233,1.0228,1.0238,1.0246,1.0248,1.025,1.0246,1.0229,1.0229,1.0228,1.0228,1.0228]}]]